Location: Hopville
(44.8032°N, 123.1329°W)
Time: 03:06:43
(UTC+00:00)

USA 215 - Pass Details

Date: 24 January 2021
Orbit: 1103 x 1105 km, 123.0° (Epoch: 14 February)

Event Time Altitude Azimuth Distance (km) Brightness Sun altitude
Rises 12:11:42 0° 52° (NE) 3,927 6.9 -36.7°
Reaches altitude 10° 12:14:17 10° 46° (NE) 2,968 6.1 -36.3°
Enters shadow 12:18:45 37° 12° (NNE) 1,654 4.2 -35.5°
